Temp
-1 -0 -0 1 1 2 2 3 1 4 4 3 1 -1 6 7 7 7 6 6 4 2 2 3 2 3 4 5 6 6 7 4 5 7 7 9 7 9 9 6 8 8 8 5
-2 -1 0 1 2 2 3 3 4 3 3 -0 -2 3 6 7 7 6 6 5 4 3 2 -0 0 3 6 6 7 7 7 6 7 7 6 8 8 9 11 7 6 8 8 5
-2 -1 0 1 1 2 3 3 -1 3 3 4 3 4 5 5 7 7 7 5 4 2 -1 0 1 2 6 6 7 8 7 7 6 6 7 6 7 9 9 8 7 6 5 4
-1 -0 0 0 1 2 3 2 0 3 -1 1 3 4 5 5 5 7 6 4 4 3 -1 1 1 3 5 6 7 6 6 5 5 6 6 6 5 7 6 7 6 6 4 3
-1 -0 -0 0 1 2 2 3 3 4 3 5 4 3 5 5 5 5 4 5 4 4 4 3 2 4 4 4 6 5 7 5 4 5 5 5 5 4 5 5 5 4 3 2
-2 -1 -1 0 1 1 1 2 3 4 3 3 1 0 4 5 5 6 6 5 4 3 4 5 5 5 5 5 5 6 6 6 5 5 5 6 5 4 3 3 3 4 4 2
-2 -1 -1 0 1 1 1 1 2 3 -1 2 3 5 6 5 5 4 5 5 4 5 6 6 8 7 6 6 7 7 7 6 6 5 6 5 3 2 4 2 2 2 2 0
-2 -2 -1 0 0 0 1 1 2 2 -2 2 3 4 4 4 4 4 4 5 5 5 5 4 5 5 6 7 8 7 8 6 6 6 6 4 4 2 1 3 1 1 1 1
-2 -2 -1 -1 -0 0 1 1 2 2 1 0 2 3 3 1 1 1 4 5 5 5 2 1 5 5 6 6 7 7 7 6 5 5 5 4 1 1 2 3 1 0 -0 -1
-2 -2 -1 -1 -1 -0 0 1 1 2 2 2 2 1 2 3 2 0 1 3 3 4 -1 2 2 4 6 5 4 5 4 4 3 5 4 3 -0 1 3 3 1 -1 -1 -2
-2 -2 -2 -1 -1 -0 0 0 1 1 1 2 2 3 3 3 2 -2 2 0 2 -0 -0 1 1 2 4 4 5 4 3 3 2 3 3 2 -1 1 2 -1 -2 -2 -1 -2
-2 -3 -2 -2 -1 -1 -0 0 0 1 1 1 2 3 3 2 2 2 2 2 2 1 -1 1 1 1 2 3 2 4 2 2 1 1 0 -1 -2 -2 -2 -2 -2 -2 -2 -2
-3 -3 -3 -2 -1 -1 -0 0 -0 0 1 2 2 3 3 3 3 2 2 2 2 3 3 2 1 2 2 2 3 2 3 3 -0 -0 -0 -1 -2 -2 -2 -2 -2 -2 -2 -2
-3 -3 -3 -2 -2 -1 -1 -1 -0 0 0 -1 2 3 3 3 3 2 2 2 2 2 3 2 3 1 3 3 3 0 1 2 0 -0 -1 -2 -2 -3 -3 -2 -3 -3 -3 -4
-3 -3 -3 -3 -2 -2 -1 -1 -1 -1 -0 -1 1 2 3 3 3 2 2 2 2 2 2 -1 0 2 2 1 1 -1 -0 -1 1 -0 -1 -2 -3 -3 -3 -3 -4 -4 -4 -5
-3 -3 -3 -3 -3 -2 -2 -1 -1 -1 -1 -1 -2 2 2 3 2 3 2 3 3 3 2 2 3 4 3 -0 0 -1 -1 -1 -1 -1 -1 -2 -3 -3 -3 -4 -4 -5 -5 -6
-3 -3 -3 -3 -3 -2 -1 -1 -1 -1 -2 -1 -1 1 3 3 3 3 3 2 2 2 2 2 3 4 3 -5 -2 -2 -2 -2 -2 -2 -2 -3 -3 -3 -3 -4 -5 -5 -6 -7
-3 -4 -4 -4 -3 -2 -2 -1 -1 -2 -1 -1 -2 -2 2 2 2 2 2 2 2 2 2 2 2 3 2 -2 -1 -2 -2 -3 -2 -2 -2 -3 -3 -3 -4 -5 -5 -5 -7 -8
-4 -4 -4 -3 -4 -3 -3 -2 -1 -1 -1 -1 -1 -3 -4 2 2 2 2 2 -0 2 -0 0 1 -3 -0 -1 -1 -1 -2 -2 -3 -3 -3 -4 -4 -4 -5 -5 -6 -6 -8 -9
-4 -4 -3 -3 -2 -2 -2 -2 -1 -2 -1 -1 -1 1 -1 2 1 1 1 2 -3 -2 -1 2 -3 -1 -1 -0 0 -0 -1 -2 -2 -4 -5 -4 -5 -5 -6 -6 -7 -7 -8 -8
-4 -3 -3 -3 -2 -1 -2 -2 -1 -2 -2 -1 -1 0 -2 2 -2 -3 1 -3 -3 -2 -1 -2 -4 -1 -2 -1 -1 -1 -1 -2 -3 -2 -3 -3 -4 -5 -6 -7 -7 -8 -8 -8
-3 -2 -2 -2 -2 -2 -1 -2 -1 -2 -2 -1 -1 0 2 2 2 2 1 -2 -4 -1 -0 -2 -5 -4 -2 -2 -3 -3 -3 -3 -3 -3 -3 -4 -5 -6 -6 -7 -7 -8 -8 -8
-3 -2 -2 -2 -2 -2 -2 -1 -1 -4 -1 0 1 -2 3 2 2 1 -1 -0 -4 -1 -1 -3 -3 -3 -3 -3 -3 -4 -4 -4 -4 -5 -5 -6 -6 -7 -7 -7 -8 -8 -9 -9
-3 -4 -3 -3 -2 -2 -4 -2 -3 2 3 2 2 1 2 1 -2 -2 -3 -4 -1 0 -1 -2 -6 -4 -4 -4 -4 -4 -5 -5 -5 -6 -6 -6 -6 -7 -7 -8 -8 -9 -9 -10
-3 -3 -4 -3 -2 -1 -1 -1 0 2 3 2 2 1 1 -3 -0 0 -1 0 0 -2 -3 -5 -3 -3 -3 -4 -4 -4 -5 -6 -6 -7 -7 -7 -7 -7 -8 -8 -9 -10 -10 -10
-4 -3 -4 -2 -1 0 -0 -1 -0 2 2 2 2 -2 -4 -0 -2 -0 1 1 -3 -4 -6 -3 -3 -3 -3 -4 -5 -5 -6 -6 -6 -7 -7 -7 -8 -8 -8 -9 -10 -10 -11 -11
-4 -3 -3 -3 -3 -2 1 0 -0 1 2 -5 -2 -4 -2 -2 -2 -0 1 -4 -6 -3 -4 -3 -2 -3 -3 -4 -5 -6 -6 -6 -7 -7 -7 -8 -8 -9 -9 -10 -10 -11 -11 -12
Height
1445 1448 1458 1461 1465 1469 1474 1475 1478 1479 1481 1484 1483 1488 1479 1477 1477 1475 1477 1479 1483 1484 1477 1471 1469 1460 1452 1439 1436 1428 1425 1429 1419 1409 1407 1399 1402 1398 1399 1421 1417 1413 1421 1447
1445 1452 1456 1460 1464 1468 1470 1474 1476 1479 1481 1488 1488 1480 1477 1476 1476 1476 1477 1481 1479 1475 1476 1480 1470 1456 1442 1438 1434 1428 1424 1422 1411 1408 1412 1404 1404 1401 1397 1412 1421 1411 1414 1445
1446 1450 1456 1459 1462 1467 1469 1474 1479 1480 1481 1479 1480 1480 1479 1479 1476 1476 1477 1478 1476 1474 1477 1471 1468 1459 1443 1436 1432 1425 1422 1425 1425 1420 1413 1414 1407 1402 1405 1414 1420 1429 1437 1454
1446 1450 1453 1457 1462 1465 1470 1472 1474 1475 1483 1479 1478 1479 1479 1478 1478 1476 1476 1476 1474 1473 1481 1471 1469 1457 1446 1435 1432 1427 1425 1429 1424 1412 1417 1413 1414 1407 1408 1415 1429 1436 1449 1457
1445 1449 1453 1457 1461 1466 1470 1471 1472 1474 1474 1475 1476 1479 1478 1477 1478 1479 1477 1473 1469 1467 1469 1468 1465 1458 1452 1445 1435 1432 1426 1428 1429 1426 1425 1423 1425 1425 1424 1430 1441 1449 1455 1463
1444 1448 1453 1457 1461 1466 1469 1471 1471 1473 1473 1474 1479 1480 1476 1477 1477 1474 1472 1471 1466 1466 1462 1457 1451 1450 1449 1444 1446 1437 1433 1430 1431 1433 1431 1426 1434 1449 1447 1449 1452 1452 1451 1464
1444 1448 1452 1456 1461 1466 1469 1469 1472 1472 1477 1473 1473 1473 1474 1475 1476 1475 1473 1468 1466 1464 1456 1448 1441 1439 1439 1439 1438 1435 1433 1430 1429 1437 1432 1443 1464 1463 1461 1463 1466 1465 1466 1470
1444 1448 1452 1456 1462 1465 1468 1469 1472 1471 1476 1474 1473 1474 1475 1474 1474 1473 1471 1469 1467 1462 1454 1452 1450 1447 1442 1438 1437 1434 1432 1432 1435 1435 1436 1456 1458 1467 1470 1465 1475 1475 1474 1472
1444 1447 1452 1457 1461 1464 1468 1470 1471 1472 1473 1478 1477 1477 1477 1479 1478 1474 1471 1468 1466 1463 1460 1462 1459 1456 1450 1445 1440 1439 1438 1433 1436 1438 1444 1458 1474 1470 1467 1464 1474 1480 1478 1476
1443 1447 1451 1456 1460 1464 1468 1470 1471 1472 1474 1477 1477 1477 1479 1478 1477 1478 1473 1472 1467 1465 1468 1469 1471 1464 1457 1459 1457 1451 1450 1450 1455 1447 1453 1467 1478 1465 1460 1462 1488 1483 1481 1480
1443 1446 1451 1456 1459 1464 1468 1470 1471 1473 1475 1476 1476 1477 1477 1478 1476 1481 1476 1475 1473 1471 1476 1478 1478 1473 1464 1465 1462 1460 1461 1462 1468 1461 1464 1473 1477 1469 1471 1487 1487 1486 1484 1483
1443 1447 1450 1455 1460 1464 1467 1469 1471 1473 1476 1477 1476 1476 1477 1477 1476 1478 1477 1479 1477 1477 1480 1477 1476 1476 1473 1470 1474 1465 1472 1473 1475 1478 1485 1490 1488 1486 1487 1488 1489 1489 1487 1486
1444 1446 1450 1456 1460 1464 1467 1469 1471 1474 1475 1476 1475 1476 1476 1476 1476 1477 1478 1479 1478 1478 1478 1477 1476 1476 1475 1476 1472 1474 1475 1475 1482 1485 1491 1490 1491 1491 1491 1492 1491 1490 1489 1488
1444 1447 1451 1456 1460 1464 1466 1470 1472 1473 1474 1476 1477 1476 1476 1477 1476 1476 1478 1477 1478 1478 1477 1476 1475 1478 1474 1474 1475 1479 1481 1479 1483 1489 1492 1493 1494 1495 1495 1494 1492 1492 1492 1492
1445 1449 1452 1456 1460 1463 1467 1470 1472 1474 1477 1477 1475 1475 1477 1477 1477 1477 1477 1477 1478 1478 1477 1477 1478 1475 1475 1474 1476 1483 1483 1484 1483 1486 1488 1490 1494 1495 1495 1494 1494 1494 1494 1494
1445 1449 1453 1456 1459 1464 1467 1471 1473 1473 1475 1476 1476 1477 1476 1477 1477 1477 1478 1478 1478 1478 1477 1477 1475 1474 1475 1480 1482 1485 1485 1485 1485 1486 1488 1489 1493 1495 1495 1494 1496 1497 1497 1497
1445 1450 1454 1456 1459 1464 1467 1470 1471 1472 1476 1477 1477 1475 1476 1477 1477 1477 1478 1478 1478 1478 1476 1475 1474 1473 1474 1480 1485 1485 1486 1486 1487 1488 1490 1493 1494 1495 1496 1495 1497 1498 1498 1498
1446 1451 1454 1458 1460 1465 1468 1468 1470 1472 1477 1478 1478 1477 1476 1476 1476 1477 1477 1477 1477 1477 1476 1475 1473 1473 1473 1481 1480 1483 1486 1488 1489 1490 1490 1492 1495 1496 1497 1497 1498 1498 1499 1500
1448 1452 1457 1458 1462 1465 1467 1470 1471 1473 1480 1477 1477 1479 1483 1475 1476 1477 1478 1478 1478 1477 1476 1474 1475 1477 1477 1477 1479 1481 1484 1486 1487 1490 1492 1494 1496 1498 1498 1499 1498 1498 1499 1500
1449 1455 1456 1458 1461 1465 1469 1473 1473 1475 1476 1476 1475 1473 1474 1476 1476 1477 1479 1478 1479 1481 1475 1473 1476 1479 1477 1477 1478 1479 1482 1485 1487 1489 1493 1494 1496 1498 1498 1498 1497 1499 1500 1500
1451 1453 1455 1458 1462 1466 1468 1471 1473 1474 1475 1471 1471 1470 1472 1474 1476 1477 1477 1479 1479 1484 1477 1478 1481 1477 1478 1478 1479 1481 1483 1486 1487 1489 1491 1494 1495 1496 1496 1497 1499 1499 1500 1500
1451 1452 1454 1459 1460 1463 1466 1468 1470 1470 1466 1465 1465 1466 1470 1472 1473 1474 1476 1479 1480 1481 1474 1479 1486 1477 1478 1478 1481 1483 1485 1486 1488 1490 1491 1493 1495 1496 1497 1498 1499 1500 1501 1501
1450 1452 1453 1454 1459 1460 1461 1462 1463 1467 1458 1458 1461 1465 1468 1472 1473 1474 1475 1478 1487 1475 1478 1480 1474 1474 1477 1478 1480 1484 1486 1488 1489 1490 1492 1494 1495 1497 1498 1498 1499 1500 1501 1501
1450 1450 1452 1452 1454 1453 1452 1451 1451 1450 1450 1454 1459 1463 1467 1470 1473 1476 1481 1478 1475 1475 1479 1472 1469 1470 1474 1477 1479 1482 1485 1487 1488 1490 1492 1494 1495 1497 1498 1499 1500 1500 1501 1501
1448 1449 1451 1449 1447 1447 1447 1448 1449 1449 1451 1454 1460 1464 1467 1470 1473 1474 1475 1475 1473 1475 1472 1462 1461 1466 1470 1475 1478 1481 1483 1486 1488 1490 1492 1494 1495 1497 1498 1498 1499 1500 1500 1500
1449 1450 1449 1447 1446 1446 1447 1448 1448 1449 1453 1457 1460 1465 1470 1469 1471 1473 1471 1470 1474 1465 1458 1458 1461 1465 1469 1472 1476 1480 1482 1485 1487 1489 1491 1493 1495 1496 1497 1498 1498 1499 1499 1500
1450 1449 1448 1449 1449 1447 1448 1449 1450 1450 1453 1457 1459 1468 1468 1466 1470 1467 1464 1468 1460 1456 1457 1458 1461 1464 1467 1472 1475 1478 1481 1483 1486 1488 1490 1492 1493 1495 1496 1497 1497 1497 1498 1498
Wind_Speed
19 18 17 16 16 13 13 8 2 6 6 0 2 2 3 2 2 8 4 2 4 5 4 5 4 5 7 15 13 7 3 2 7 6 10 2 2 2 4 4 1 3 3 3
17 18 18 16 16 14 13 7 4 6 5 2 2 4 3 2 2 1 2 3 6 4 2 2 5 7 12 20 10 4 2 1 4 1 4 5 3 2 2 8 2 1 3 4
18 19 19 17 15 14 10 4 2 3 6 3 4 1 2 4 3 1 5 5 3 4 3 5 5 4 8 25 9 17 5 3 5 3 4 2 4 8 5 6 4 6 8 6
18 19 18 16 15 13 9 3 2 4 2 2 3 2 0 3 3 3 6 4 3 2 3 6 3 4 11 9 7 7 3 6 8 2 3 13 10 8 10 12 9 4 8 8
19 18 17 15 15 15 6 4 3 3 3 11 4 1 2 1 4 3 6 2 8 2 3 5 9 8 3 6 9 6 6 3 7 12 17 22 20 24 20 16 13 13 13 9
15 17 16 16 16 14 4 2 2 2 1 3 4 4 3 2 3 7 6 3 4 6 5 19 29 23 18 15 5 5 5 3 3 2 7 1 15 16 21 20 18 7 5 6
13 14 17 17 16 12 7 5 3 1 1 2 4 5 3 3 4 3 7 12 5 11 32 27 10 11 9 6 5 7 6 6 2 2 7 6 4 9 19 22 16 14 10 10
13 11 18 18 16 14 10 6 3 2 2 3 7 8 3 6 10 5 3 14 13 24 14 5 5 4 6 5 1 10 3 4 3 1 6 7 8 9 6 6 11 11 10 4
13 9 19 18 15 15 9 6 5 3 5 3 6 4 5 2 4 6 4 17 12 19 3 3 3 3 4 5 10 8 7 11 4 1 4 3 4 17 14 7 8 13 14 14
11 12 19 18 16 15 10 7 5 3 4 4 5 3 0 2 2 1 4 12 9 15 4 4 3 3 3 4 6 7 4 4 6 5 4 4 13 20 4 3 3 10 12 13
12 13 17 17 16 16 11 7 8 5 3 1 1 0 1 1 3 2 6 4 6 6 5 3 2 2 3 2 4 4 6 4 4 3 4 3 26 5 5 6 12 11 11 10
14 11 17 17 15 16 15 8 8 5 2 2 3 6 8 8 1 1 4 1 3 3 3 2 2 2 3 4 3 6 4 3 2 5 3 6 12 17 16 14 12 12 12 10
14 13 17 18 16 15 14 11 7 5 1 1 2 3 4 4 4 3 2 2 4 2 4 2 1 1 2 3 2 3 3 2 3 3 4 9 10 12 13 10 11 12 14 14
15 14 17 17 16 14 15 10 6 4 4 2 2 3 1 2 2 3 1 2 2 5 5 2 1 1 1 1 2 3 2 4 3 4 8 11 9 9 10 13 14 13 13 13
17 16 15 16 16 13 12 8 4 4 3 3 2 2 3 2 4 3 1 1 2 3 3 2 1 2 3 2 2 2 4 2 0 2 12 8 7 8 8 11 12 13 10 11
19 16 13 12 17 15 11 4 6 4 2 2 2 0 5 2 3 2 1 3 4 2 1 2 3 1 1 2 1 3 5 4 4 5 8 13 13 10 8 11 9 8 9 9
17 15 12 9 15 18 7 4 5 11 5 1 3 2 3 5 2 1 0 2 2 2 2 2 2 2 1 2 2 9 8 8 11 11 14 11 7 8 9 11 10 7 7 6
17 14 12 12 14 19 9 10 10 15 4 1 1 3 1 4 2 1 1 1 2 2 2 2 1 3 1 2 11 13 9 11 12 8 4 15 14 10 15 12 9 5 6 6
19 14 13 14 11 11 11 4 13 11 2 1 2 2 3 5 2 2 1 1 1 1 1 2 1 2 0 3 17 18 18 15 13 9 10 14 14 13 12 9 5 3 6 4
19 17 7 5 11 16 13 3 5 1 3 3 3 3 1 5 3 2 1 1 2 0 4 1 2 1 2 4 14 14 18 13 15 21 18 17 13 10 8 5 4 4 5 6
20 8 4 13 20 17 5 5 4 4 3 6 6 9 3 7 3 2 4 2 1 1 3 3 1 2 2 15 15 14 17 17 15 11 14 11 6 7 8 9 7 7 6 5
10 8 13 17 5 3 3 3 4 4 4 8 8 7 8 6 4 2 2 1 2 3 1 3 3 1 17 20 18 16 14 15 13 11 16 14 9 7 8 9 8 7 6 5
10 4 5 4 3 4 4 6 3 2 6 10 9 3 8 4 2 3 1 1 3 3 1 3 2 14 20 21 19 16 12 10 10 13 13 13 11 9 7 9 9 7 5 3
4 3 4 4 4 4 4 4 4 8 7 19 19 6 4 3 3 1 3 4 1 2 2 4 3 23 25 22 18 16 14 11 12 14 14 12 11 12 11 8 6 4 2 1
2 1 3 4 6 4 1 2 3 6 16 25 12 6 4 1 3 2 3 0 3 4 4 3 20 29 26 23 19 15 14 14 15 15 14 13 12 10 8 6 4 2 0 3
2 1 2 3 2 3 2 3 3 15 25 17 5 3 3 2 3 3 5 3 5 4 2 10 24 27 24 22 19 15 16 15 15 15 14 13 12 9 7 5 4 2 1 1
1 2 4 4 3 1 1 1 3 15 23 2 4 4 6 3 2 4 5 5 3 5 9 16 23 24 23 22 20 19 18 17 17 17 16 13 11 9 7 6 4 4 2 1
Wind_Direction
164 160 170 167 166 163 152 148 99 169 169 76 62 141 206 271 83 58 33 48 248 240 285 305 297 297 295 307 312 319 348 304 273 218 340 14 8 119 127 112 232 122 80 61
169 168 165 165 166 164 151 132 117 158 176 131 320 295 1 17 64 50 27 257 233 231 212 307 225 287 281 298 321 312 243 261 322 57 358 325 328 354 60 93 46 165 79 88
172 165 165 166 167 166 151 136 91 155 210 200 135 80 16 1 39 355 258 247 322 337 298 220 284 299 308 319 303 341 176 48 324 255 277 247 245 227 207 114 51 55 76 108
175 168 163 165 169 168 156 154 208 172 218 287 146 111 267 33 356 250 291 311 296 1 317 333 287 277 315 308 324 354 71 6 331 181 54 71 25 96 104 96 91 44 100 96
170 165 164 165 166 165 157 151 154 174 157 155 142 173 185 151 303 211 284 305 299 356 266 185 300 304 328 274 332 2 331 22 7 44 62 69 59 50 66 84 99 109 111 96
166 164 167 171 168 169 150 148 164 212 195 133 107 217 190 246 329 292 5 349 340 328 266 299 291 278 253 258 293 309 336 336 11 60 323 234 48 54 59 60 42 26 49 86
168 169 172 174 171 168 138 103 124 120 270 115 200 149 121 336 342 258 13 10 20 311 319 315 301 269 255 253 244 244 327 335 141 11 341 53 85 40 73 63 45 43 82 98
167 177 178 176 175 170 158 127 132 82 68 322 27 58 34 41 0 14 59 9 334 333 328 359 345 341 5 328 59 24 267 294 66 70 54 137 57 18 345 37 49 39 43 90
176 182 180 178 176 177 178 146 121 106 118 1 345 91 43 62 328 346 343 359 352 354 29 40 6 18 325 335 340 33 18 31 73 22 62 70 13 330 318 267 53 24 41 38
177 181 176 176 174 173 167 156 170 130 105 54 38 80 68 20 17 284 327 343 337 5 14 47 23 348 11 11 357 343 352 9 32 26 91 88 352 330 327 72 31 33 53 53
173 174 174 175 174 178 171 166 171 173 134 177 118 290 241 49 75 115 325 9 354 11 44 38 333 350 339 30 37 2 18 357 21 357 53 14 355 25 55 94 66 52 62 78
168 170 173 172 177 183 188 179 181 179 200 234 244 287 255 250 266 41 35 86 18 33 61 342 57 357 341 342 9 5 41 24 68 21 88 76 45 69 80 88 85 67 67 77
168 161 164 171 173 179 186 182 176 175 167 80 94 68 24 115 133 122 124 72 17 32 16 268 270 27 12 355 36 80 65 59 87 106 94 94 79 73 71 79 96 85 80 93
166 161 169 170 171 172 173 176 192 169 121 100 82 73 146 16 251 179 268 274 289 320 321 203 317 346 335 0 102 92 342 6 94 79 123 109 88 86 88 90 98 90 82 86
164 157 156 172 174 171 176 165 128 134 99 174 304 114 144 22 125 112 80 86 334 348 360 37 256 273 15 15 66 57 14 6 210 139 150 103 110 106 103 102 97 97 94 87
163 159 157 159 176 172 157 160 200 192 205 53 76 93 199 169 127 126 82 320 300 299 301 262 268 268 70 90 101 121 72 53 158 127 145 123 128 117 112 117 105 96 93 94
162 156 154 161 173 169 170 142 153 180 165 43 345 360 153 180 181 225 259 305 285 319 285 258 257 299 94 96 151 143 122 110 113 126 126 112 113 117 124 138 122 97 90 90
161 151 147 155 157 175 180 102 140 148 155 125 33 281 286 182 164 107 356 347 319 252 275 278 264 318 81 90 144 149 152 144 143 140 152 140 138 143 147 156 151 113 90 95
151 143 155 151 167 177 193 153 142 157 135 161 228 136 229 170 139 114 36 333 306 262 225 260 101 330 84 219 162 165 166 169 160 158 149 150 151 139 149 159 144 112 109 116
146 151 148 162 154 130 131 109 155 92 200 221 250 208 204 162 162 122 173 202 230 357 250 211 81 138 30 158 182 175 176 179 161 147 149 158 153 157 162 167 135 119 115 106
158 168 157 130 141 144 153 136 172 170 231 210 220 212 167 186 116 200 205 197 272 23 273 117 292 176 104 143 148 161 167 167 175 194 180 178 172 170 153 141 138 132 120 109
164 149 123 144 163 126 149 167 159 204 221 187 179 194 184 158 180 122 165 137 29 245 291 71 286 223 148 143 134 138 146 157 160 171 171 176 170 148 145 141 137 133 127 121
153 147 158 138 162 168 194 161 185 218 192 171 165 140 162 129 142 81 124 189 231 319 41 229 218 153 159 155 158 155 163 171 169 161 167 165 160 154 157 153 148 142 130 110
174 147 144 183 177 218 194 191 186 207 178 155 152 109 117 116 70 132 100 238 91 266 249 242 191 164 166 165 172 179 176 182 176 169 167 168 164 160 156 152 141 129 113 45
80 159 209 209 241 235 6 278 215 162 169 151 119 85 110 25 110 210 206 229 240 210 230 219 170 174 176 177 182 189 186 177 171 167 166 166 163 159 154 150 151 142 19 339
349 299 320 330 248 180 252 15 188 156 156 138 109 120 83 157 153 165 204 206 226 245 215 171 174 177 184 187 188 189 184 180 178 175 174 172 166 163 166 172 166 200 173 40
236 272 280 311 280 242 200 266 28 176 157 149 129 118 195 127 182 204 196 213 223 206 179 179 182 183 186 186 186 187 188 187 185 181 177 175 177 176 171 163 134 142 149 345